Location: Vancouver
(49.2500°N, 123.1330°W)
Time: 22:38:19
(UTC-07:00)

YAOGAN 6 - Visible Passes

Search period start: 28 June 2016 00:00
Search period end: 08 July 2016 00:00
Orbit: 470 x 512 km, 97.2° (Epoch: 28 June)

Date Brightness Start Highest point End Pass type
(mag) Time Alt. Az. Time Alt. Az. Time Alt. Az.
28 Jun 5.3 23:24:21 10° WSW 23:26:04 13° W 23:27:46 10° WNW visible
29 Jun 4.7 23:00:36 10° SW 23:03:28 22° W 23:06:20 10° NW visible
30 Jun 3.8 22:37:34 10° SSW 22:40:57 38° W 22:44:20 10° NNW visible
01 Jul 2.8 22:14:54 10° S 22:18:30 71° WSW 22:22:06 10° NNW visible
02 Jul 5.4 23:28:54 10° WSW 23:30:06 11° W 23:31:18 10° WNW visible
03 Jul 4.9 23:04:50 10° SW 23:07:30 19° W 23:10:09 10° NW visible
04 Jul 4.0 22:41:40 10° SSW 22:44:58 33° W 22:48:14 10° NNW visible
05 Jul 3.0 22:18:56 10° S 22:22:29 62° W 22:26:02 10° NNW visible
06 Jul 2.6 21:56:31 10° SSE 22:00:05 70° ENE 22:03:38 10° N visible
07 Jul 5.0 23:09:03 10° SW 23:11:29 17° W 23:13:56 10° NW visible
